AFR54HF LFPG-EKCH

Flight info

Callsign AFR54HF
Flight time 1h 31m
Altitude 35000
Route LFPG/27L NURM6A NURMO DCT CMB DCT VEKIN DCT ADUTO DCT VICOT DCT EEL DCT TALSA P729 TUDLO TUDL3C EKCH/22L
Aircraft A20N/M-SDE2E3FGHIRWXY/LB1

Departure

Time 2026-05-03 21:42
Airport Charles de Gaulle International Airport (LFPG)

Arrival

Time 2026-05-03 23:14
Airport Copenhagen Kastrup Airport (EKCH)
Time Latitude Longitude Altitude Speed Heading
2026-05-03 20:53 49.00617 2.57328 353 ft 0 kts 85°
2026-05-03 21:20 49.00616 2.57306 359 ft 4 kts 85°
2026-05-03 21:20 49.00614 2.57274 353 ft 4 kts 85°
2026-05-03 21:20 49.00610 2.57243 353 ft 4 kts 11°
2026-05-03 21:21 49.00588 2.57244 356 ft 2 kts 354°
2026-05-03 21:21 49.00587 2.57244 356 ft 1 kts 354°
2026-05-03 21:29 49.00595 2.57243 360 ft 3 kts 354°
2026-05-03 21:29 49.00623 2.57238 353 ft 6 kts 354°
2026-05-03 21:29 49.00673 2.57230 353 ft 9 kts 353°
2026-05-03 21:30 49.00741 2.57221 354 ft 10 kts
2026-05-03 21:30 49.00776 2.57310 362 ft 11 kts 82°
2026-05-03 21:30 49.00784 2.57439 354 ft 13 kts 87°
2026-05-03 21:30 49.00792 2.57592 361 ft 16 kts 84°
2026-05-03 21:31 49.00814 2.57717 358 ft 11 kts 39°
2026-05-03 21:31 49.00888 2.57753 362 ft 10 kts 53°
2026-05-03 21:31 49.00893 2.57864 361 ft 12 kts 87°
2026-05-03 21:31 49.00901 2.57992 355 ft 12 kts 82°
2026-05-03 21:32 49.00914 2.58130 358 ft 14 kts 81°
2026-05-03 21:32 49.00982 2.58229 360 ft 15 kts
2026-05-03 21:32 49.01093 2.58212 359 ft 17 kts 353°
2026-05-03 21:32 49.01209 2.58201 356 ft 14 kts 356°
2026-05-03 21:33 49.01317 2.58185 357 ft 17 kts 355°
2026-05-03 21:33 49.01442 2.58169 355 ft 19 kts 355°
2026-05-03 21:33 49.01582 2.58153 355 ft 21 kts 356°
2026-05-03 21:33 49.01735 2.58135 363 ft 21 kts 355°
2026-05-03 21:34 49.01866 2.58115 358 ft 19 kts 353°
2026-05-03 21:34 49.01969 2.58050 359 ft 13 kts 324°
2026-05-03 21:34 49.02038 2.57946 359 ft 15 kts 307°
2026-05-03 21:34 49.02080 2.57795 362 ft 16 kts 283°
2026-05-03 21:35 49.02086 2.57630 355 ft 16 kts 264°
2026-05-03 21:35 49.02077 2.57469 361 ft 15 kts 266°
2026-05-03 21:35 49.02070 2.57308 355 ft 16 kts 265°
2026-05-03 21:35 49.02060 2.57135 358 ft 17 kts 264°
2026-05-03 21:36 49.02050 2.56948 355 ft 18 kts 264°
2026-05-03 21:36 49.02041 2.56827 357 ft 0 kts 263°
2026-05-03 21:36 49.02040 2.56819 356 ft 4 kts 266°
2026-05-03 21:37 49.02036 2.56699 355 ft 16 kts 266°
2026-05-03 21:37 49.02029 2.56578 361 ft 7 kts 264°
2026-05-03 21:37 49.02022 2.56495 357 ft 9 kts 263°
2026-05-03 21:37 49.02023 2.56396 355 ft 10 kts 284°
2026-05-03 21:38 49.02069 2.56318 358 ft 10 kts 338°
2026-05-03 21:38 49.02143 2.56306 357 ft 12 kts 352°
2026-05-03 21:38 49.02219 2.56293 362 ft 9 kts 347°
2026-05-03 21:38 49.02226 2.56289 362 ft 0 kts 339°
2026-05-03 21:40 49.02248 2.56271 362 ft 8 kts 325°
2026-05-03 21:40 49.02297 2.56191 357 ft 13 kts 311°
2026-05-03 21:40 49.02319 2.56087 358 ft 0 kts 264°
2026-05-03 21:41 49.02319 2.56085 359 ft 1 kts 264°
2026-05-03 21:41 49.02305 2.55824 362 ft 63 kts 264°
2026-05-03 21:41 49.02247 2.54756 362 ft 136 kts 265°
2026-05-03 21:42 49.02164 2.53038 534 ft 176 kts 266°
2026-05-03 21:42 49.02110 2.51183 1402 ft 175 kts 267°
2026-05-03 21:42 49.02068 2.49308 2298 ft 179 kts 268°
2026-05-03 21:42 49.02040 2.47382 3216 ft 183 kts 268°
2026-05-03 21:43 49.02009 2.45446 4008 ft 186 kts 265°
2026-05-03 21:43 49.01997 2.43349 4434 ft 210 kts 278°
2026-05-03 21:43 49.02565 2.41177 4932 ft 236 kts 304°
2026-05-03 21:43 49.03858 2.39451 5398 ft 262 kts 326°
2026-05-03 21:44 49.05462 2.37950 6043 ft 275 kts 327°
2026-05-03 21:44 49.07092 2.36453 6916 ft 278 kts 327°
2026-05-03 21:44 49.08775 2.34888 7806 ft 282 kts 326°
2026-05-03 21:44 49.10430 2.33325 8663 ft 285 kts 326°
2026-05-03 21:45 49.12126 2.31708 9558 ft 289 kts 326°
2026-05-03 21:45 49.14000 2.30488 10151 ft 296 kts 347°
2026-05-03 21:45 49.16113 2.30520 10359 ft 323 kts 12°
2026-05-03 21:45 49.18311 2.31730 10606 ft 348 kts 23°
2026-05-03 21:46 49.20553 2.33314 11187 ft 357 kts 25°
2026-05-03 21:46 49.22811 2.34951 11943 ft 362 kts 25°
2026-05-03 21:46 49.25114 2.36578 12672 ft 367 kts 24°
2026-05-03 21:46 49.27457 2.38186 13413 ft 372 kts 23°
2026-05-03 21:47 49.29838 2.39792 14103 ft 376 kts 23°
2026-05-03 21:47 49.32253 2.41409 14741 ft 381 kts 23°
2026-05-03 21:47 49.34694 2.43042 15404 ft 385 kts 23°
2026-05-03 21:47 49.37168 2.44697 16020 ft 390 kts 23°
2026-05-03 21:48 49.39669 2.46375 16678 ft 394 kts 23°
2026-05-03 21:48 49.42194 2.48071 17294 ft 399 kts 23°
2026-05-03 21:48 49.44752 2.49792 17937 ft 403 kts 23°
2026-05-03 21:48 49.47331 2.51531 18505 ft 407 kts 23°
2026-05-03 21:49 49.49938 2.53291 19047 ft 411 kts 22°
2026-05-03 21:49 49.52568 2.55069 19583 ft 415 kts 22°
2026-05-03 21:49 49.55237 2.56876 20110 ft 420 kts 22°
2026-05-03 21:49 49.57890 2.58674 20637 ft 424 kts 22°
2026-05-03 21:50 49.60634 2.60537 21163 ft 428 kts 22°
2026-05-03 21:50 49.63336 2.62373 21669 ft 432 kts 22°
2026-05-03 21:50 49.66110 2.64260 22205 ft 436 kts 22°
2026-05-03 21:50 49.68909 2.66167 22703 ft 440 kts 22°
2026-05-03 21:51 49.71721 2.68085 23200 ft 444 kts 22°
2026-05-03 21:51 49.74564 2.70027 23679 ft 448 kts 22°
2026-05-03 21:51 49.77437 2.71991 24089 ft 452 kts 22°
2026-05-03 21:51 49.80327 2.73969 24487 ft 456 kts 22°
2026-05-03 21:52 49.83156 2.76099 24878 ft 461 kts 29°
2026-05-03 21:52 49.85887 2.78743 25261 ft 465 kts 32°
2026-05-03 21:52 49.88638 2.81443 25641 ft 469 kts 32°
2026-05-03 21:52 49.91412 2.84153 26015 ft 473 kts 32°
2026-05-03 21:53 49.94210 2.86887 26385 ft 476 kts 32°
2026-05-03 21:53 49.97031 2.89651 26745 ft 480 kts 32°
2026-05-03 21:53 49.99863 2.92432 27106 ft 483 kts 32°
2026-05-03 21:53 50.02713 2.95237 27442 ft 487 kts 32°
2026-05-03 21:54 50.05551 2.98034 27749 ft 490 kts 32°
2026-05-03 21:54 50.08480 3.00926 28103 ft 494 kts 32°
2026-05-03 21:54 50.11391 3.03804 28413 ft 497 kts 32°
2026-05-03 21:54 50.14280 3.06665 28707 ft 501 kts 32°
2026-05-03 21:55 50.17228 3.09588 29024 ft 503 kts 32°
2026-05-03 21:55 50.20195 3.12535 29308 ft 507 kts 32°
2026-05-03 21:55 50.23268 3.15404 29581 ft 509 kts 26°
2026-05-03 21:55 50.26449 3.17680 29859 ft 512 kts 22°
2026-05-03 21:56 50.29761 3.19987 30121 ft 515 kts 22°
2026-05-03 21:56 50.32990 3.22255 30441 ft 516 kts 22°
2026-05-03 21:56 50.36268 3.24564 30761 ft 517 kts 22°
2026-05-03 21:56 50.39556 3.26882 31069 ft 518 kts 22°
2026-05-03 21:57 50.42843 3.29252 31436 ft 518 kts 24°
2026-05-03 21:57 50.46069 3.31766 31847 ft 516 kts 25°
2026-05-03 21:57 50.49271 3.34323 32253 ft 515 kts 25°
2026-05-03 21:57 50.52470 3.36872 32651 ft 513 kts 24°
2026-05-03 21:58 50.55657 3.39215 33026 ft 511 kts 21°
2026-05-03 21:58 50.58908 3.41458 33405 ft 509 kts 20°
2026-05-03 21:58 50.62162 3.43678 33765 ft 508 kts 20°
2026-05-03 21:58 50.65395 3.45903 34086 ft 507 kts 21°
2026-05-03 21:59 50.68612 3.48137 34393 ft 505 kts 21°
2026-05-03 21:59 50.71816 3.50380 34722 ft 502 kts 21°
2026-05-03 21:59 50.75008 3.52623 34902 ft 501 kts 21°
2026-05-03 21:59 50.78186 3.54864 34940 ft 500 kts 21°
2026-05-03 22:00 50.84538 3.59352 34939 ft 500 kts 21°
2026-05-03 22:00 50.90878 3.63844 34940 ft 499 kts 21°
2026-05-03 22:01 50.96160 3.67596 34936 ft 500 kts 21°
2026-05-03 22:01 51.03531 3.72849 34929 ft 499 kts 22°
2026-05-03 22:02 51.08840 3.76642 34933 ft 499 kts 22°
2026-05-03 22:02 51.15173 3.81180 34934 ft 499 kts 22°
2026-05-03 22:03 51.21500 3.85726 34941 ft 499 kts 22°
2026-05-03 22:03 51.27820 3.90282 34945 ft 498 kts 22°
2026-05-03 22:04 51.34120 3.94838 34939 ft 496 kts 22°
2026-05-03 22:04 51.40354 3.99359 34941 ft 495 kts 22°
2026-05-03 22:05 51.46532 4.04194 34934 ft 495 kts 30°
2026-05-03 22:05 51.52050 4.10815 34932 ft 495 kts 43°
2026-05-03 22:06 51.57104 4.18299 34932 ft 493 kts 42°
2026-05-03 22:06 51.62165 4.25748 34927 ft 493 kts 42°
2026-05-03 22:07 51.67176 4.33186 34933 ft 492 kts 43°
2026-05-03 22:07 51.72210 4.40697 34923 ft 491 kts 43°
2026-05-03 22:08 51.77229 4.48209 34929 ft 491 kts 43°
2026-05-03 22:08 51.82201 4.55675 34932 ft 491 kts 43°
2026-05-03 22:09 51.87197 4.63201 34928 ft 491 kts 43°
2026-05-03 22:10 51.94692 4.74536 34925 ft 491 kts 43°
2026-05-03 22:10 51.99679 4.82110 34931 ft 492 kts 43°
2026-05-03 22:11 52.04678 4.89725 34928 ft 492 kts 43°
2026-05-03 22:11 52.09669 4.97352 34940 ft 492 kts 43°
2026-05-03 22:12 52.14655 5.04996 34941 ft 492 kts 43°
2026-05-03 22:12 52.19610 5.12619 34950 ft 492 kts 43°
2026-05-03 22:13 52.24580 5.20287 34932 ft 490 kts 43°
2026-05-03 22:13 52.29519 5.27933 34935 ft 489 kts 43°
2026-05-03 22:14 52.34445 5.35583 34934 ft 488 kts 43°
2026-05-03 22:14 52.39362 5.43246 34939 ft 487 kts 43°
2026-05-03 22:15 52.44257 5.50897 34937 ft 487 kts 43°
2026-05-03 22:15 52.49149 5.58570 34939 ft 486 kts 43°
2026-05-03 22:16 52.53999 5.66200 34935 ft 485 kts 43°
2026-05-03 22:16 52.58870 5.73889 34935 ft 485 kts 43°
2026-05-03 22:17 52.63736 5.81594 34926 ft 484 kts 43°
2026-05-03 22:17 52.68579 5.89289 34925 ft 484 kts 44°
2026-05-03 22:18 52.73387 5.96952 34919 ft 483 kts 44°
2026-05-03 22:18 52.78213 6.04668 34919 ft 483 kts 44°
2026-05-03 22:19 52.83040 6.12413 34918 ft 483 kts 44°
2026-05-03 22:19 52.87853 6.20159 34918 ft 483 kts 44°
2026-05-03 22:20 52.92662 6.27924 34909 ft 483 kts 44°
2026-05-03 22:20 52.97479 6.35727 34909 ft 483 kts 44°
2026-05-03 22:21 53.02248 6.43478 34904 ft 483 kts 44°
2026-05-03 22:21 53.07047 6.51305 34904 ft 483 kts 44°
2026-05-03 22:22 53.11842 6.59148 34905 ft 483 kts 44°
2026-05-03 22:22 53.16638 6.67009 34908 ft 484 kts 44°
2026-05-03 22:23 53.21645 6.74515 34906 ft 484 kts 40°
2026-05-03 22:23 53.26763 6.81836 34910 ft 484 kts 40°
2026-05-03 22:24 53.31843 6.89226 34912 ft 485 kts 40°
2026-05-03 22:24 53.36912 6.96683 34917 ft 485 kts 41°
2026-05-03 22:25 53.41981 7.04173 34912 ft 485 kts 41°
2026-05-03 22:25 53.47007 7.11622 34917 ft 486 kts 41°
2026-05-03 22:26 53.52071 7.19152 34916 ft 486 kts 41°
2026-05-03 22:26 53.57126 7.26695 34918 ft 486 kts 41°
2026-05-03 22:27 53.62183 7.34264 34912 ft 486 kts 41°
2026-05-03 22:27 53.67241 7.41861 34913 ft 486 kts 41°
2026-05-03 22:28 53.72290 7.49470 34914 ft 486 kts 41°
2026-05-03 22:28 53.77340 7.57106 34910 ft 487 kts 41°
2026-05-03 22:29 53.82352 7.64709 34907 ft 486 kts 41°
2026-05-03 22:29 53.87387 7.72374 34906 ft 486 kts 41°
2026-05-03 22:30 53.92423 7.80067 34903 ft 486 kts 41°
2026-05-03 22:30 53.97447 7.87765 34898 ft 486 kts 41°
2026-05-03 22:31 54.02466 7.95484 34898 ft 486 kts 41°
2026-05-03 22:31 54.07477 8.03216 34892 ft 486 kts 41°
2026-05-03 22:32 54.12447 8.10911 34885 ft 485 kts 41°
2026-05-03 22:32 54.17439 8.18667 34884 ft 485 kts 41°
2026-05-03 22:33 54.22429 8.26445 34881 ft 485 kts 41°
2026-05-03 22:33 54.27409 8.34236 34873 ft 485 kts 41°
2026-05-03 22:34 54.32384 8.42045 34872 ft 484 kts 41°
2026-05-03 22:34 54.37346 8.49860 34866 ft 484 kts 42°
2026-05-03 22:35 54.42307 8.57700 34863 ft 484 kts 42°
2026-05-03 22:35 54.47225 8.65500 34862 ft 484 kts 42°
2026-05-03 22:36 54.52177 8.73379 34858 ft 484 kts 42°
2026-05-03 22:36 54.57115 8.81265 34851 ft 484 kts 42°
2026-05-03 22:37 54.62055 8.89181 34847 ft 484 kts 42°
2026-05-03 22:37 54.66962 8.97070 34845 ft 484 kts 42°
2026-05-03 22:38 54.71887 9.05017 34852 ft 484 kts 42°
2026-05-03 22:38 54.76812 9.12991 34844 ft 485 kts 42°
2026-05-03 22:39 54.81736 9.20992 34856 ft 485 kts 42°
2026-05-03 22:39 54.86654 9.29012 34855 ft 485 kts 42°
2026-05-03 22:40 54.91567 9.37049 34857 ft 485 kts 42°
2026-05-03 22:40 54.96471 9.45103 34853 ft 485 kts 42°
2026-05-03 22:41 55.01337 9.53121 34858 ft 485 kts 42°
2026-05-03 22:41 55.06234 9.61215 34862 ft 485 kts 42°
2026-05-03 22:42 55.10454 9.70358 34852 ft 485 kts 61°
2026-05-03 22:42 55.12941 9.81223 34847 ft 482 kts 74°
2026-05-03 22:43 55.14944 9.92419 34848 ft 482 kts 74°
2026-05-03 22:43 55.16945 10.03624 34846 ft 482 kts 74°
2026-05-03 22:44 55.18928 10.14850 34834 ft 482 kts 74°
2026-05-03 22:44 55.20895 10.26071 34841 ft 482 kts 74°
2026-05-03 22:45 55.22854 10.37317 34854 ft 483 kts 74°
2026-05-03 22:45 55.24791 10.48508 34850 ft 483 kts 74°
2026-05-03 22:46 55.26730 10.59777 34849 ft 483 kts 74°
2026-05-03 22:46 55.28666 10.71077 34844 ft 483 kts 74°
2026-05-03 22:47 55.30600 10.82351 34838 ft 482 kts 74°
2026-05-03 22:47 55.32522 10.93631 34651 ft 480 kts 74°
2026-05-03 22:47 55.33475 10.99262 34102 ft 481 kts 74°
2026-05-03 22:48 55.34101 11.03005 33565 ft 484 kts 74°
2026-05-03 22:48 55.35047 11.08705 32627 ft 487 kts 74°
2026-05-03 22:48 55.35996 11.14456 31645 ft 492 kts 74°
2026-05-03 22:48 55.37266 11.22165 30351 ft 497 kts 74°
2026-05-03 22:49 55.37916 11.26117 29660 ft 499 kts 74°
2026-05-03 22:49 55.38879 11.31989 28772 ft 497 kts 74°
2026-05-03 22:49 55.39823 11.37758 28506 ft 482 kts 74°
2026-05-03 22:49 55.40732 11.43337 28319 ft 467 kts 74°
2026-05-03 22:50 55.41612 11.48751 28145 ft 452 kts 74°
2026-05-03 22:50 55.42450 11.53925 27993 ft 438 kts 74°
2026-05-03 22:50 55.43325 11.58976 27836 ft 424 kts 67°
2026-05-03 22:50 55.44680 11.63471 27698 ft 408 kts 53°
2026-05-03 22:51 55.46503 11.67158 27555 ft 392 kts 39°
2026-05-03 22:51 55.48507 11.70277 27429 ft 378 kts 39°
2026-05-03 22:51 55.50443 11.73306 27308 ft 366 kts 39°
2026-05-03 22:51 55.52321 11.76254 27048 ft 358 kts 39°
2026-05-03 22:52 55.54173 11.79162 26622 ft 356 kts 39°
2026-05-03 22:52 55.56016 11.82056 26220 ft 353 kts 39°
2026-05-03 22:52 55.57844 11.84931 25822 ft 350 kts 39°
2026-05-03 22:52 55.59654 11.87781 25430 ft 348 kts 39°
2026-05-03 22:53 55.61456 11.90621 25053 ft 345 kts 39°
2026-05-03 22:53 55.63239 11.93435 24687 ft 342 kts 39°
2026-05-03 22:53 55.65012 11.96238 24306 ft 340 kts 39°
2026-05-03 22:53 55.66744 11.98979 23954 ft 337 kts 39°
2026-05-03 22:54 55.68491 12.01747 23584 ft 335 kts 39°
2026-05-03 22:54 55.70221 12.04493 23201 ft 333 kts 39°
2026-05-03 22:54 55.71928 12.07253 22750 ft 332 kts 45°
2026-05-03 22:54 55.73186 12.10679 22265 ft 334 kts 69°
2026-05-03 22:55 55.73618 12.14701 21785 ft 332 kts 92°
2026-05-03 22:55 55.73421 12.18752 21374 ft 329 kts 101°
2026-05-03 22:55 55.73051 12.22739 20990 ft 326 kts 102°
2026-05-03 22:55 55.72689 12.26699 20613 ft 324 kts 101°
2026-05-03 22:56 55.72371 12.30666 20233 ft 323 kts 100°
2026-05-03 22:56 55.72091 12.34614 19854 ft 322 kts 99°
2026-05-03 22:56 55.71837 12.38508 19512 ft 320 kts 99°
2026-05-03 22:56 55.71588 12.42432 19139 ft 319 kts 99°
2026-05-03 22:57 55.71343 12.46335 18770 ft 318 kts 99°
2026-05-03 22:57 55.70902 12.50112 18491 ft 308 kts 116°
2026-05-03 22:57 55.70020 12.53575 18264 ft 309 kts 120°
2026-05-03 22:57 55.69444 12.57256 18004 ft 315 kts 95°
2026-05-03 22:58 55.69730 12.61103 17588 ft 317 kts 69°
2026-05-03 22:58 55.70854 12.64430 17145 ft 314 kts 43°
2026-05-03 22:58 55.72600 12.66617 16710 ft 304 kts 16°
2026-05-03 22:58 55.74617 12.67358 16283 ft 293 kts 355°
2026-05-03 22:59 55.76643 12.67394 15870 ft 292 kts 354°
2026-05-03 22:59 55.78694 12.67476 15354 ft 297 kts 355°
2026-05-03 22:59 55.80778 12.67559 14837 ft 301 kts 355°
2026-05-03 22:59 55.82887 12.67635 14337 ft 305 kts 355°
2026-05-03 23:00 55.85025 12.67704 13831 ft 309 kts 355°
2026-05-03 23:00 55.87184 12.67672 13284 ft 308 kts 346°
2026-05-03 23:00 55.89160 12.66468 12670 ft 298 kts 321°
2026-05-03 23:00 55.90623 12.63996 11931 ft 293 kts 297°
2026-05-03 23:01 55.91345 12.60664 11213 ft 291 kts 276°
2026-05-03 23:01 55.91450 12.57050 10489 ft 293 kts 258°
2026-05-03 23:01 55.90697 12.53691 9791 ft 297 kts 235°
2026-05-03 23:01 55.89174 12.51184 9038 ft 305 kts 212°
2026-05-03 23:02 55.87126 12.49997 8274 ft 318 kts 189°
2026-05-03 23:02 55.84898 12.49891 7547 ft 323 kts 185°
2026-05-03 23:02 55.82645 12.49852 6834 ft 325 kts 185°
2026-05-03 23:02 55.80374 12.49803 6125 ft 327 kts 185°
2026-05-03 23:03 55.78096 12.49742 5373 ft 328 kts 185°
2026-05-03 23:03 55.75807 12.49719 4651 ft 331 kts 180°
2026-05-03 23:03 55.73593 12.50844 4288 ft 332 kts 156°
2026-05-03 23:03 55.71833 12.53400 4114 ft 328 kts 133°
2026-05-03 23:04 55.70795 12.56935 3968 ft 323 kts 109°
2026-05-03 23:04 55.70638 12.60846 3810 ft 316 kts 83°
2026-05-03 23:04 55.71366 12.64412 3687 ft 303 kts 56°
2026-05-03 23:04 55.72744 12.67017 3584 ft 287 kts 34°
2026-05-03 23:05 55.74428 12.68737 3465 ft 273 kts 22°
2026-05-03 23:05 55.76084 12.70237 3367 ft 262 kts 25°
2026-05-03 23:05 55.77643 12.71813 3282 ft 252 kts 27°
2026-05-03 23:05 55.79129 12.73391 3141 ft 245 kts 28°
2026-05-03 23:06 55.80584 12.74961 3080 ft 248 kts 28°
2026-05-03 23:06 55.81946 12.76787 3021 ft 245 kts 50°
2026-05-03 23:06 55.82651 12.79431 2930 ft 232 kts 84°
2026-05-03 23:06 55.82487 12.82147 2786 ft 215 kts 120°
2026-05-03 23:07 55.81627 12.84200 2727 ft 210 kts 140°
2026-05-03 23:07 55.80635 12.86054 2724 ft 200 kts 138°
2026-05-03 23:07 55.79644 12.87617 2617 ft 182 kts 155°
2026-05-03 23:07 55.78534 12.88386 2519 ft 163 kts 175°
2026-05-03 23:08 55.77474 12.88472 2467 ft 143 kts 193°
2026-05-03 23:08 55.76520 12.88004 2476 ft 144 kts 210°
2026-05-03 23:08 55.75689 12.87095 2479 ft 139 kts 220°
2026-05-03 23:08 55.74939 12.86014 2478 ft 139 kts 224°
2026-05-03 23:09 55.74206 12.84876 2403 ft 139 kts 224°
2026-05-03 23:09 55.73486 12.83758 2313 ft 138 kts 224°
2026-05-03 23:09 55.72759 12.82625 2263 ft 135 kts 224°
2026-05-03 23:09 55.72072 12.81558 2209 ft 131 kts 225°
2026-05-03 23:10 55.71384 12.80485 2127 ft 132 kts 224°
2026-05-03 23:10 55.70692 12.79409 1983 ft 132 kts 224°
2026-05-03 23:10 55.70002 12.78336 1830 ft 133 kts 224°
2026-05-03 23:10 55.69307 12.77256 1662 ft 132 kts 224°
2026-05-03 23:11 55.68618 12.76186 1497 ft 132 kts 224°
2026-05-03 23:11 55.67925 12.75108 1315 ft 132 kts 224°
2026-05-03 23:11 55.67242 12.74048 1151 ft 132 kts 224°
2026-05-03 23:11 55.66544 12.72965 964 ft 132 kts 224°
2026-05-03 23:12 55.65861 12.71905 816 ft 133 kts 224°
2026-05-03 23:12 55.65152 12.70804 675 ft 138 kts 223°
2026-05-03 23:12 55.64426 12.69679 515 ft 139 kts 223°
2026-05-03 23:12 55.63688 12.68539 339 ft 141 kts 222°
2026-05-03 23:13 55.62949 12.67393 150 ft 142 kts 222°
2026-05-03 23:13 55.62217 12.66256 23 ft 135 kts 222°
2026-05-03 23:13 55.61596 12.65296 15 ft 98 kts 222°
2026-05-03 23:13 55.61190 12.64663 17 ft 60 kts 221°
2026-05-03 23:14 55.60938 12.64274 17 ft 42 kts 220°
2026-05-03 23:14 55.60758 12.63998 19 ft 27 kts 220°
2026-05-03 23:14 55.60688 12.63787 20 ft 18 kts 288°
2026-05-03 23:14 55.60729 12.63703 17 ft 8 kts 310°
2026-05-03 23:15 55.60773 12.63613 17 ft 11 kts 314°
2026-05-03 23:15 55.60841 12.63605 17 ft 11 kts 29°
2026-05-03 23:15 55.60900 12.63676 17 ft 10 kts 34°
2026-05-03 23:15 55.60965 12.63751 19 ft 12 kts 32°
2026-05-03 23:16 55.61042 12.63839 18 ft 14 kts 33°
2026-05-03 23:16 55.61128 12.63938 17 ft 16 kts 33°
2026-05-03 23:16 55.61223 12.64047 18 ft 17 kts 33°
2026-05-03 23:16 55.61323 12.64161 17 ft 18 kts 33°
2026-05-03 23:17 55.61429 12.64286 17 ft 19 kts 33°
2026-05-03 23:17 55.61543 12.64417 17 ft 20 kts 31°
2026-05-03 23:17 55.61667 12.64549 17 ft 20 kts 29°
2026-05-03 23:17 55.61781 12.64544 18 ft 16 kts 351°
2026-05-03 23:18 55.61893 12.64510 17 ft 17 kts 349°
2026-05-03 23:18 55.62007 12.64543 17 ft 17 kts 31°
2026-05-03 23:18 55.62044 12.64583 19 ft 2 kts 31°
2026-05-03 23:18 55.62065 12.64605 17 ft 5 kts 31°
2026-05-03 23:19 55.62103 12.64647 17 ft 7 kts 33°
2026-05-03 23:19 55.62148 12.64700 20 ft 9 kts 33°
2026-05-03 23:19 55.62210 12.64770 18 ft 12 kts 33°
2026-05-03 23:19 55.62273 12.64849 17 ft 12 kts 38°
2026-05-03 23:20 55.62347 12.64873 17 ft 12 kts 325°
2026-05-03 23:20 55.62396 12.64741 17 ft 14 kts 303°
2026-05-03 23:20 55.62452 12.64591 17 ft 15 kts 303°
2026-05-03 23:20 55.62514 12.64420 17 ft 18 kts 303°
2026-05-03 23:21 55.62581 12.64249 17 ft 17 kts 306°
2026-05-03 23:21 55.62641 12.64083 18 ft 15 kts 301°
2026-05-03 23:21 55.62699 12.63921 18 ft 16 kts 314°
2026-05-03 23:21 55.62770 12.63951 18 ft 2 kts 31°
2026-05-03 23:22 55.62806 12.63991 19 ft 6 kts 36°
2026-05-03 23:22 55.62819 12.64067 17 ft 7 kts 114°
2026-05-03 23:22 55.62793 12.64126 17 ft 4 kts 127°
2026-05-03 23:23 55.62783 12.64154 17 ft 2 kts 121°
2026-05-03 23:23 55.62781 12.64159 17 ft 0 kts 121°